Theta_e
298 298 298 298 298 299 299 301 303 305 305 305 306 307 308 310 312 315 315 314 314 313 313 312 311 311 311 310 310 311 312 310 302 298 300 300 300 300 300 300 300 300 299
298 298 298 298 299 299 300 304 305 305 306 306 306 307 308 310 313 315 314 313 313 313 313 313 311 311 311 312 311 310 311 311 308 298 297 298 299 299 299 299 299 299 299
298 298 297 298 299 301 303 304 305 306 306 307 306 307 308 311 314 315 315 314 314 313 313 313 312 312 313 312 311 310 311 311 307 303 298 298 298 299 299 299 298 298 298
298 297 298 298 300 303 304 305 306 307 307 308 307 308 311 314 315 315 315 314 314 314 314 314 314 314 314 314 312 311 311 308 304 302 299 298 298 298 299 298 298 298 298
298 297 298 299 303 304 305 306 307 308 308 308 309 310 312 314 316 315 315 315 315 315 316 315 315 315 314 314 312 310 310 306 302 300 300 299 298 297 299 300 299 298 296
298 298 298 300 304 304 305 307 308 308 307 309 311 312 314 315 316 316 315 315 315 315 315 315 315 313 312 312 312 311 309 307 305 303 301 300 301 302 302 302 300 296 294
298 298 299 301 303 304 306 307 309 309 309 310 311 313 315 316 315 315 315 315 315 315 315 315 315 314 313 312 310 308 306 305 305 306 305 303 302 301 300 299 298 296 293
297 298 300 302 303 305 306 308 309 309 309 309 310 312 315 314 315 316 315 314 314 313 313 314 314 312 311 310 307 305 304 303 304 303 303 300 301 299 299 299 297 293 290
297 298 302 302 303 304 306 307 307 307 308 308 308 308 311 311 311 314 315 313 311 309 308 308 311 310 308 307 307 304 302 297 300 302 302 299 298 296 296 296 295 294 289
297 299 303 303 304 305 306 306 307 306 305 305 304 304 305 307 307 310 313 310 307 305 304 305 306 307 306 306 307 305 300 296 298 297 296 294 294 292 292 293 293 292 288
298 299 303 303 304 305 304 304 304 304 303 303 303 301 302 306 304 307 309 309 306 303 303 302 303 305 304 304 303 299 296 292 292 293 292 290 289 289 289 289 289 290 288
298 299 302 303 302 304 304 303 302 302 301 299 299 299 300 302 304 305 308 308 306 306 302 300 299 301 298 295 294 293 291 290 289 289 288 287 287 286 285 286 286 286 287
297 299 301 302 302 302 302 301 299 300 300 298 299 298 297 299 300 302 305 305 305 305 299 295 291 292 293 293 291 290 289 290 289 288 286 285 285 285 285 286 286 285 285
296 299 300 300 299 299 300 300 300 300 299 298 298 297 297 297 299 298 299 299 297 295 291 291 291 292 293 292 289 288 288 289 288 287 285 285 285 284 284 284 284 283 283
295 297 299 299 299 298 298 299 300 301 304 303 302 302 301 298 298 299 298 295 295 293 293 292 292 291 288 287 287 287 286 287 288 288 287 285 284 284 284 284 284 282 281
294 295 296 296 296 296 295 295 295 298 299 303 302 304 301 303 302 298 296 295 295 294 294 289 288 288 288 287 286 286 287 288 287 287 286 285 284 283 282 281 280 279 279
294 295 295 296 294 294 293 294 292 293 296 297 297 298 301 301 295 294 295 295 294 292 290 288 289 289 288 288 288 288 287 287 287 286 285 284 283 282 280 278 277 277 277
294 295 296 295 295 294 293 294 294 292 292 293 294 295 297 297 295 295 294 292 289 288 290 291 291 290 289 289 288 288 286 285 284 284 283 283 282 280 278 277 277 277 276
294 294 295 295 295 295 294 294 294 293 292 289 289 292 293 294 293 292 291 293 290 288 290 292 292 291 290 288 287 286 285 284 283 283 282 281 280 278 276 276 276 276 276
293 294 295 294 294 294 294 293 293 293 291 289 288 288 289 289 287 286 288 288 288 290 292 293 291 290 289 287 285 285 283 283 282 281 280 279 277 277 276 276 275 275 275
293 293 294 294 294 293 293 293 293 292 291 290 289 290 293 291 289 287 288 287 288 290 292 292 291 289 287 286 285 284 283 282 281 280 278 276 276 276 276 275 275 275 274
292 293 293 293 293 293 293 293 293 293 292 290 290 289 289 289 289 289 289 288 288 290 292 291 289 288 287 286 285 283 282 281 279 278 277 276 276 276 275 274 274 273 272
292 292 292 293 293 292 292 292 292 292 291 291 289 289 288 288 288 290 291 288 288 289 290 289 288 287 285 284 283 283 282 280 279 277 276 276 275 275 275 274 273 272 272
292 292 292 292 292 291 291 291 291 291 291 290 289 289 288 287 288 289 289 287 288 289 289 288 287 286 284 283 282 280 279 278 277 276 276 275 275 274 273 273 272 271 271
291 292 292 292 292 291 291 290 290 289 289 289 289 288 288 287 287 287 286 286 287 287 287 286 284 284 284 282 280 278 277 276 275 275 275 275 274 273 273 272 272 271 271
291 291 292 292 291 291 291 290 289 289 288 288 288 288 287 286 287 286 285 285 285 285 284 283 283 283 281 279 277 276 275 275 274 274 274 274 273 272 272 271 271 270 270
Wind_Speed
10 8 7 7 4 4 3 4 5 6 7 6 6 5 2 1 3 2 6 15 19 18 16 16 18 19 20 19 19 15 11 8 9 4 8 11 11 9 8 7 7 6 4
10 9 8 7 5 4 2 3 6 7 7 5 4 3 4 4 4 8 15 15 19 20 19 18 18 20 20 18 20 16 11 6 6 11 12 10 9 10 9 7 6 5 3
11 10 9 7 5 3 3 3 4 4 5 4 5 5 6 6 5 8 15 18 20 20 19 18 21 19 17 17 16 16 12 8 6 12 10 10 9 10 9 8 7 6 5
12 11 10 8 5 3 4 2 2 2 3 5 7 8 10 8 7 15 15 18 18 16 15 18 20 17 15 14 15 16 13 11 11 19 17 12 10 12 9 9 8 5 3
14 12 11 8 5 4 3 2 4 4 6 7 8 10 10 10 13 17 16 16 19 18 14 14 15 13 12 15 18 16 13 15 19 20 16 12 9 11 8 8 7 7 10
16 14 12 10 7 5 5 6 7 7 9 9 9 8 7 11 15 17 19 24 23 20 18 17 16 15 17 15 12 11 11 18 18 16 13 14 11 11 12 10 10 8 5
18 16 15 12 8 7 8 8 10 9 8 11 11 11 11 13 15 17 19 21 19 15 16 18 16 16 17 16 13 15 17 15 11 13 18 14 13 11 11 9 8 9 7
22 19 17 14 11 11 11 12 11 9 9 10 10 12 15 12 15 15 18 20 20 18 17 18 17 20 19 21 23 22 18 16 13 13 14 11 11 10 7 7 10 16 14
25 24 22 17 14 14 16 14 11 11 10 9 10 13 15 16 13 16 17 21 19 18 17 20 22 22 23 24 26 26 23 21 17 15 14 13 12 10 10 9 11 10 4
29 27 25 19 17 18 18 17 15 12 13 13 12 13 13 16 15 18 19 24 24 23 20 20 21 23 23 20 21 23 23 18 16 16 15 14 11 11 9 7 8 10 10
29 27 25 20 19 20 20 18 17 17 15 16 17 15 14 14 17 21 24 27 31 32 31 28 24 21 19 17 16 17 19 20 18 17 17 16 14 13 13 12 10 8 10
29 28 25 21 20 21 20 19 20 23 23 22 21 18 15 15 15 20 23 28 32 35 30 26 23 19 18 16 17 18 19 19 19 18 19 19 19 19 19 18 18 17 17
30 30 26 22 22 23 25 26 27 27 26 25 23 22 19 18 19 21 26 28 29 31 28 26 23 20 20 20 20 19 18 18 19 20 22 22 21 21 20 20 19 19 20
31 32 27 25 24 24 25 28 30 30 28 27 26 25 23 22 23 25 27 28 29 30 28 25 23 22 20 21 21 19 17 16 18 22 24 23 21 19 19 17 18 18 22
28 31 30 27 27 27 26 29 30 30 32 34 31 32 32 28 28 28 27 28 28 27 28 27 25 24 24 23 21 19 19 19 20 21 22 21 20 17 16 10 9 11 21
25 27 28 28 27 28 27 22 19 23 25 27 27 29 28 28 30 28 26 24 24 25 27 29 27 27 26 24 24 22 19 19 20 21 21 21 21 20 17 16 17 21 24
24 26 27 29 28 28 27 27 24 15 14 15 20 23 21 29 28 27 26 26 27 26 25 27 27 24 23 22 22 22 23 20 21 20 21 22 22 21 19 20 21 23 23
28 28 31 29 29 28 28 29 29 27 25 21 18 21 21 27 28 26 27 29 27 23 27 26 24 21 20 21 22 23 23 23 23 22 22 20 20 21 22 23 22 24 24
29 29 29 29 31 30 30 29 29 26 25 24 25 21 23 27 27 27 29 29 31 27 26 22 19 19 19 21 22 24 24 24 23 22 21 20 21 23 24 23 22 21 22
29 28 30 29 29 30 30 28 27 27 27 26 24 29 31 29 26 26 26 24 26 28 25 22 20 19 22 24 26 25 25 24 23 22 21 21 22 23 25 24 21 21 20
27 28 31 29 29 30 30 29 28 29 28 27 26 35 39 37 32 29 29 26 27 27 24 22 23 22 24 26 26 26 25 24 23 23 24 24 25 27 25 23 22 20 21
29 29 31 28 27 28 29 30 31 30 29 28 27 31 33 29 30 31 31 30 26 25 23 23 24 24 26 26 26 26 26 26 25 26 27 28 27 26 26 24 22 21 20
30 29 30 28 28 28 29 30 30 30 30 30 30 32 32 30 31 34 33 30 27 26 26 25 25 26 25 23 22 22 24 26 28 29 31 31 29 27 25 24 23 21 19
31 31 31 30 27 28 29 29 29 31 32 32 32 31 33 34 35 33 31 31 29 30 29 28 28 27 27 25 23 21 21 23 26 28 27 29 29 26 25 23 22 21 20
31 31 32 32 30 30 28 28 29 31 32 32 31 32 35 37 36 32 33 33 32 33 33 31 30 29 26 25 24 24 24 26 26 27 26 26 26 26 25 24 23 21 19
33 32 31 31 31 31 30 29 29 31 31 32 33 37 39 39 37 35 36 35 35 34 34 33 31 29 27 26 25 26 27 28 28 27 26 26 27 27 24 23 22 20 19
Wind_Direction
206 221 209 219 224 248 271 301 311 305 291 288 288 293 316 159 137 128 158 171 169 164 165 154 156 161 161 166 168 161 153 136 122 130 148 164 166 162 152 150 153 153 157
200 216 213 223 228 254 287 284 288 271 266 267 264 276 264 171 143 140 148 149 157 160 167 158 155 159 167 172 181 182 176 175 141 149 153 151 166 165 161 151 162 166 178
197 202 213 213 221 242 275 277 276 268 255 229 223 222 187 152 154 161 153 151 157 157 161 160 163 161 161 170 177 177 173 176 178 163 141 151 148 164 166 172 174 175 165
193 195 213 200 212 237 270 260 241 187 198 194 187 180 154 139 128 161 154 150 154 150 149 155 157 168 170 177 162 163 161 157 150 148 141 140 150 169 175 181 173 164 156
190 193 209 192 207 247 249 171 149 171 169 175 175 160 162 155 141 154 153 145 142 144 141 158 168 175 175 173 167 160 158 147 143 141 137 137 139 158 173 160 144 145 96
192 192 197 192 202 215 173 149 137 146 146 157 155 160 152 167 152 150 157 153 143 142 134 148 146 152 154 154 161 165 159 148 141 134 135 140 142 149 154 158 153 142 112
194 188 191 197 191 184 167 146 141 146 144 148 148 144 129 138 156 155 162 171 170 158 153 150 150 157 166 165 160 145 139 134 131 145 145 147 159 166 164 162 137 120 116
190 188 189 198 190 178 170 159 153 150 147 143 148 146 145 148 161 163 163 156 156 159 165 164 158 151 156 154 142 132 125 122 129 139 136 134 134 144 153 143 139 118 97
191 187 189 195 188 180 175 170 164 169 162 153 150 147 151 152 162 173 176 157 149 145 155 159 157 153 153 149 141 133 126 115 123 125 123 121 122 126 124 124 130 137 118
195 189 186 192 190 184 180 182 179 177 163 157 148 144 148 146 160 168 168 156 141 135 136 141 143 139 141 146 145 141 126 122 121 120 119 116 106 98 107 124 131 137 131
194 188 187 188 190 186 180 179 176 167 155 145 139 136 138 144 156 161 159 153 143 135 132 132 135 137 142 145 139 139 131 131 133 129 116 108 106 102 100 104 112 112 117
188 187 188 185 185 186 183 172 166 160 151 144 136 128 129 141 159 160 157 149 144 137 134 134 136 145 140 135 133 130 130 137 131 124 117 110 107 103 100 97 94 94 91
186 188 190 184 183 184 179 170 163 162 156 150 144 136 131 138 144 150 147 147 146 139 137 135 137 140 139 136 131 133 136 136 135 129 122 118 115 111 106 98 93 95 95
186 187 192 184 182 185 183 177 171 170 165 160 155 148 146 146 148 151 150 149 147 140 138 137 140 138 138 136 135 135 137 141 142 135 130 127 123 120 114 109 106 104 99
188 186 191 192 186 183 186 184 183 180 179 173 171 165 159 161 164 162 160 156 153 150 145 141 142 142 140 138 138 140 142 143 140 135 135 135 135 136 132 139 151 135 120
180 186 187 185 185 182 178 174 189 187 188 186 184 176 173 171 166 166 164 163 159 156 154 153 151 149 148 148 145 143 144 145 140 139 137 137 137 137 132 131 131 125 125
187 185 188 185 181 175 171 164 152 165 177 197 195 180 180 170 170 170 167 165 165 167 163 160 160 162 160 160 157 154 147 147 145 147 147 145 141 137 136 132 128 120 117
195 194 191 187 185 180 176 171 171 165 164 166 183 185 181 179 174 174 173 169 167 175 172 171 171 170 166 161 157 154 150 150 151 150 149 148 147 143 139 133 130 125 123
198 198 195 191 189 185 181 178 176 172 167 158 161 171 180 178 177 176 177 181 178 178 179 178 178 172 169 165 161 157 155 154 154 154 153 154 152 147 136 131 131 129 124
204 202 199 194 187 184 183 179 175 174 168 165 169 165 168 168 162 172 184 190 184 180 181 181 179 176 172 170 164 160 158 161 162 160 156 156 153 147 137 136 138 134 125
200 201 201 197 192 188 185 183 180 178 174 176 181 179 180 180 178 182 186 190 192 189 185 185 181 179 176 172 169 167 168 168 167 162 158 156 151 144 141 140 139 134 127
196 197 198 200 197 191 190 187 185 184 181 179 184 183 179 185 182 188 193 194 194 193 194 189 185 182 179 178 177 175 175 172 169 166 160 156 155 151 148 145 143 138 134
197 195 197 201 202 196 190 189 186 185 184 185 184 176 179 189 192 197 197 193 191 190 191 189 186 179 179 180 185 186 183 178 173 171 164 159 156 153 153 151 149 144 143
196 196 197 198 198 195 191 188 187 186 185 182 183 179 183 194 201 202 196 191 189 186 187 186 186 183 178 177 181 187 187 179 173 170 167 159 154 153 153 151 148 146 141
198 198 198 197 195 195 193 190 188 185 184 182 181 184 189 198 202 198 194 192 189 186 184 183 183 180 181 179 179 180 179 175 171 168 166 162 157 154 154 152 150 147 142
195 200 200 197 195 196 194 191 189 186 183 183 184 189 194 198 200 197 192 191 187 184 183 180 179 180 177 178 179 178 174 172 169 167 165 163 159 154 154 153 152 150 147